,,PA_Meas_PMT16A,,PR_Meas_QMR101_102,,RH_Meas_QMH101,,SR_Meas_QMS101,,TA_Meas_QMH101,,GenWind,,GenWind,
time,status,PA,status,PR,status,RH,status,SR,status,TA,status,DirAvg,status,SpdAvg,
2012-05-22, 00:00:04,VALID,917.862,VALID,0,VALID,97.7169,VALID,0,VALID,19.8378,VALID,118,VALID,0.932031,
2012-05-22, 00:01:04,VALID,917.869,VALID,0,VALID,97.7246,VALID,0.107441,VALID,19.7973,VALID,119,VALID,0.778516,
2012-05-22, 00:02:04,VALID,917.824,VALID,0,VALID,97.7246,VALID,0.107441,VALID,19.7988,VALID,118,VALID,0.352344,
2012-05-22, 00:03:04,VALID,917.833,VALID,0,VALID,97.7322,VALID,0,VALID,19.7988,VALID,118,VALID,0.611719,
2012-05-22, 00:04:04,VALID,917.868,VALID,0,VALID,97.7169,VALID,0,VALID,19.7793,VALID,119,VALID,0.360547,
2012-05-22, 00:05:04,VALID,917.831,VALID,0,VALID,97.7246,VALID,0.107441,VALID,19.7583,VALID,118,VALID,0.222266,
2012-05-22, 00:06:04,VALID,917.859,VALID,0,VALID,97.7322,VALID,0,VALID,19.7988,VALID,118,VALID,0.244531,
2012-05-22, 00:07:04,VALID,917.864,VALID,0,VALID,97.7169,VALID,0,VALID,19.7793,VALID,119,VALID,0,
2012-05-22, 00:08:04,VALID,917.863,VALID,0,VALID,97.7322,VALID,0,VALID,19.7598,VALID,118,VALID,0,
2012-05-22, 00:09:04,VALID,917.89,VALID,0,VALID,97.7322,VALID,0,VALID,19.7403,VALID,119,VALID,0,
2012-05-22, 00:10:04,VALID,917.891,VALID,0,VALID,97.7322,VALID,0,VALID,19.7208,VALID,118,VALID,0,
2012-05-22, 00:11:04,VALID,917.9,VALID,0,VALID,97.7322,VALID,0,VALID,19.6818,VALID,118,VALID,0,
2012-05-22, 00:12:04,VALID,917.894,VALID,0,VALID,97.7398,VALID,0,VALID,19.6218,VALID,118,VALID,0.398047,
2012-05-22, 00:13:04,VALID,917.89,VALID,0,VALID,97.7322,VALID,0,VALID,19.6623,VALID,118,VALID,0.714453,
2012-05-22, 00:14:04,VALID,917.88,VALID,0,VALID,97.7322,VALID,0,VALID,19.6428,VALID,118,VALID,0.810156,
2012-05-22, 00:15:04,VALID,917.856,VALID,0,VALID,97.7398,VALID,0,VALID,19.6818,VALID,119,VALID,0.816797,
2012-05-22, 00:16:04,VALID,917.856,VALID,0,VALID,97.7246,VALID,0,VALID,19.7013,VALID,118,VALID,0.866406,
2012-05-22, 00:17:04,VALID,917.858,VALID,0,VALID,97.7246,VALID,0,VALID,19.7403,VALID,118,VALID,0.989844,
2012-05-22, 00:18:04,VALID,917.842,VALID,0,VALID,97.7169,VALID,0,VALID,19.7583,VALID,118,VALID,0.716797,
2012-05-22, 00:19:04,VALID,917.826,VALID,0,VALID,97.7474,VALID,0,VALID,19.7403,VALID,118,VALID,0.853516,
2012-05-22, 00:20:04,VALID,917.813,VALID,0,VALID,97.7474,VALID,0,VALID,19.6803,VALID,119,VALID,0.469922,
2012-05-22, 00:21:04,VALID,917.839,VALID,0,VALID,97.7169,VALID,0.107441,VALID,19.6623,VALID,119,VALID,0.396875,
2012-05-22, 00:22:04,VALID,917.806,VALID,0,VALID,97.7551,VALID,0.107441,VALID,19.6233,VALID,118,VALID,0.346094,
2012-05-22, 00:23:04,VALID,917.8,VALID,0,VALID,97.7474,VALID,0,VALID,19.6023,VALID,118,VALID,0.541406,
2012-05-22, 00:24:04,VALID,917.746,VALID,0,VALID,97.7551,VALID,0.107441,VALID,19.6023,VALID,118,VALID,0.548047,
2012-05-22, 00:25:04,VALID,917.756,VALID,0,VALID,97.7322,VALID,0,VALID,19.6038,VALID,118,VALID,0.174609,
2012-05-22, 00:26:04,VALID,917.751,VALID,0,VALID,97.7551,VALID,0,VALID,19.5843,VALID,118,VALID,0.307422,
2012-05-22, 00:27:04,VALID,917.779,VALID,0,VALID,97.7551,VALID,0,VALID,19.6038,VALID,118,VALID,0.304688,
2012-05-22, 00:28:04,VALID,917.768,VALID,0,VALID,97.7474,VALID,0,VALID,19.5828,VALID,118,VALID,0.615625,
2012-05-22, 00:29:04,VALID,917.819,VALID,0,VALID,97.7398,VALID,0.107441,VALID,19.5828,VALID,119,VALID,0.776953,
2012-05-22, 00:30:04,VALID,917.811,VALID,0,VALID,97.7703,VALID,0.107441,VALID,19.6233,VALID,119,VALID,0.681641,
2012-05-22, 00:31:04,VALID,917.822,VALID,0,VALID,97.7474,VALID,0,VALID,19.5828,VALID,118,VALID,0.566016,
2012-05-22, 00:32:04,VALID,917.839,VALID,0,VALID,97.7474,VALID,0,VALID,19.6428,VALID,118,VALID,1.06641,
2012-05-22, 00:33:04,VALID,917.869,VALID,0,VALID,97.7551,VALID,0,VALID,19.6233,VALID,118,VALID,1.28711,
2012-05-22, 00:34:04,VALID,917.837,VALID,0,VALID,97.7703,VALID,0.107441,VALID,19.6428,VALID,118,VALID,0.776953,
2012-05-22, 00:35:04,VALID,917.871,VALID,0,VALID,97.7474,VALID,0,VALID,19.6833,VALID,118,VALID,1.16914,
2012-05-22, 00:36:04,VALID,917.863,VALID,0,VALID,97.7474,VALID,0.107441,VALID,19.6803,VALID,118,VALID,1.26797,
2012-05-22, 00:37:04,VALID,917.852,VALID,0,VALID,97.7474,VALID,0,VALID,19.7013,VALID,118,VALID,0.881641,
2012-05-22, 00:38:04,VALID,917.822,VALID,0,VALID,97.7398,VALID,0,VALID,19.6803,VALID,115,VALID,1.04805,
2012-05-22, 00:39:04,VALID,917.818,VALID,0,VALID,97.7474,VALID,0.107441,VALID,19.7403,VALID,130,VALID,1.1082,
2012-05-22, 00:40:04,VALID,917.833,VALID,0,VALID,97.7551,VALID,0,VALID,19.6803,VALID,120,VALID,0.863672,
2012-05-22, 00:41:04,VALID,917.851,VALID,0,VALID,97.7398,VALID,0,VALID,19.7403,VALID,132,VALID,1.12109,
2012-05-22, 00:42:04,VALID,917.843,VALID,0,VALID,97.7398,VALID,0.107441,VALID,19.7583,VALID,132,VALID,0.589844,
2012-05-22, 00:43:04,VALID,917.882,VALID,0,VALID,97.7398,VALID,0,VALID,19.7583,VALID,132,VALID,0.777344,
2012-05-22, 00:44:04,VALID,917.866,VALID,0,VALID,97.7398,VALID,0,VALID,19.7388,VALID,132,VALID,0.648438,
2012-05-22, 00:45:04,VALID,917.867,VALID,0,VALID,97.7551,VALID,0,VALID,19.6968,VALID,132,VALID,0.658984,
2012-05-22, 00:46:04,VALID,917.856,VALID,0,VALID,97.7322,VALID,0,VALID,19.7598,VALID,132,VALID,0.286328,
2012-05-22, 00:47:04,VALID,917.817,VALID,0,VALID,97.7322,VALID,0.107441,VALID,19.6968,VALID,132,VALID,0.707031,
2012-05-22, 00:48:04,VALID,917.801,VALID,0,VALID,97.7398,VALID,0,VALID,19.7193,VALID,132,VALID,0.698828,
2012-05-22, 00:49:04,VALID,917.794,VALID,0,VALID,97.7627,VALID,0,VALID,19.7193,VALID,132,VALID,0.855859,
2012-05-22, 00:50:04,VALID,917.77,VALID,0,VALID,97.7627,VALID,0,VALID,19.7208,VALID,132,VALID,0.917969,
2012-05-22, 00:51:04,VALID,917.74,VALID,0,VALID,97.7703,VALID,0.107441,VALID,19.7238,VALID,132,VALID,0.926172,
2012-05-22, 00:52:04,VALID,917.716,VALID,0,VALID,97.7398,VALID,0,VALID,19.6983,VALID,131,VALID,0.40625,
2012-05-22, 00:53:04,VALID,917.692,VALID,0,VALID,97.7398,VALID,0.107441,VALID,19.7178,VALID,131,VALID,0.767578,
2012-05-22, 00:54:04,VALID,917.681,VALID,0,VALID,97.7398,VALID,0,VALID,19.7583,VALID,132,VALID,0.745703,
2012-05-22, 00:55:04,VALID,917.689,VALID,0,VALID,97.7398,VALID,0,VALID,19.7013,VALID,132,VALID,0.725781,
2012-05-22, 00:56:04,VALID,917.619,VALID,0,VALID,97.7474,VALID,0,VALID,19.7628,VALID,132,VALID,0.617969,
2012-05-22, 00:57:04,VALID,917.605,VALID,0,VALID,97.7398,VALID,0,VALID,19.6998,VALID,132,VALID,0.535156,
2012-05-22, 00:58:04,VALID,917.57,VALID,0,VALID,97.7322,VALID,0,VALID,19.7418,VALID,131,VALID,0.394141,
2012-05-22, 00:59:04,VALID,917.567,VALID,0,VALID,97.7551,VALID,0,VALID,19.7223,VALID,132,VALID,0.799219,
2012-05-22, 01:00:04,VALID,917.557,VALID,0,VALID,97.7474,VALID,0,VALID,19.6788,VALID,131,VALID,0.835938,
2012-05-22, 01:01:04,VALID,917.51,VALID,0,VALID,97.7474,VALID,0,VALID,19.8213,VALID,132,VALID,0.903516,
2012-05-22, 01:02:04,VALID,917.528,VALID,0,VALID,97.7627,VALID,0,VALID,19.7178,VALID,131,VALID,0.891016,
2012-05-22, 01:03:04,VALID,917.542,VALID,0,VALID,97.7551,VALID,0,VALID,19.7178,VALID,131,VALID,0.764063,
2012-05-22, 01:04:04,VALID,917.538,VALID,0,VALID,97.7093,VALID,0,VALID,19.7793,VALID,132,VALID,0.863672,
2012-05-22, 01:05:04,VALID,917.537,VALID,0,VALID,97.7779,VALID,0,VALID,19.8003,VALID,132,VALID,1.0293,
2012-05-22, 01:06:04,VALID,917.565,VALID,0,VALID,97.7627,VALID,0,VALID,19.7358,VALID,131,VALID,0.877734,
2012-05-22, 01:07:04,VALID,917.538,VALID,0,VALID,97.7551,VALID,0,VALID,19.7598,VALID,132,VALID,0.598437,
2012-05-22, 01:08:04,VALID,917.531,VALID,0,VALID,97.7474,VALID,0.107441,VALID,19.7793,VALID,132,VALID,0.653516,
2012-05-22, 01:09:04,VALID,917.521,VALID,0,VALID,97.7474,VALID,0,VALID,19.6983,VALID,132,VALID,0.758203,
2012-05-22, 01:10:04,VALID,917.513,VALID,0,VALID,97.7474,VALID,0,VALID,19.7793,VALID,132,VALID,0.694141,
2012-05-22, 01:11:04,VALID,917.499,VALID,0,VALID,97.7551,VALID,0,VALID,19.7628,VALID,131,VALID,0.751562,
2012-05-22, 01:12:04,VALID,917.438,VALID,0,VALID,97.7551,VALID,0,VALID,19.7418,VALID,131,VALID,0.757813,
2012-05-22, 01:13:04,VALID,917.424,VALID,0,VALID,97.7627,VALID,0,VALID,19.7208,VALID,131,VALID,0.813281,
2012-05-22, 01:14:04,VALID,917.434,VALID,0,VALID,97.7703,VALID,0,VALID,19.7013,VALID,110,VALID,1.01875,
2012-05-22, 01:15:04,VALID,917.398,VALID,0,VALID,97.7474,VALID,0,VALID,19.6833,VALID,110,VALID,0.978125,
2012-05-22, 01:16:04,VALID,917.385,VALID,0,VALID,97.7551,VALID,0,VALID,19.6803,VALID,110,VALID,1.00586,
2012-05-22, 01:17:04,VALID,917.365,VALID,0,VALID,97.7322,VALID,0,VALID,19.6818,VALID,110,VALID,0.964063,
2012-05-22, 01:18:04,VALID,917.337,VALID,0,VALID,97.7551,VALID,0,VALID,19.8063,VALID,110,VALID,0.875391,
2012-05-22, 01:19:04,VALID,917.303,VALID,0,VALID,97.7779,VALID,0,VALID,19.6413,VALID,110,VALID,0.88125,
2012-05-22, 01:20:04,VALID,917.301,VALID,0,VALID,97.7551,VALID,0,VALID,19.6623,VALID,132,VALID,0.930469,
2012-05-22, 01:21:04,VALID,917.265,VALID,0,VALID,97.7627,VALID,0,VALID,19.6428,VALID,132,VALID,1.05859,
2012-05-22, 01:22:04,VALID,917.247,VALID,0,VALID,97.7779,VALID,0,VALID,19.6023,VALID,132,VALID,0.613672,
2012-05-22, 01:23:04,VALID,917.246,VALID,0,VALID,97.7779,VALID,0,VALID,19.7298,VALID,132,VALID,0.944922,
2012-05-22, 01:24:04,VALID,917.245,VALID,0,VALID,97.7703,VALID,0,VALID,19.6053,VALID,132,VALID,0.690234,
2012-05-22, 01:25:04,VALID,917.222,VALID,0,VALID,97.7779,VALID,0,VALID,19.6893,VALID,132,VALID,0.574219,
2012-05-22, 01:26:04,VALID,917.221,VALID,0,VALID,97.7932,VALID,0.107441,VALID,19.5618,VALID,133,VALID,0.757813,
2012-05-22, 01:27:04,VALID,917.214,VALID,0,VALID,97.7856,VALID,0,VALID,19.6473,VALID,133,VALID,0.774609,
2012-05-22, 01:28:04,VALID,917.236,VALID,0,VALID,97.7627,VALID,0,VALID,19.5438,VALID,133,VALID,0.751562,
2012-05-22, 01:29:04,VALID,917.196,VALID,0,VALID,97.7779,VALID,0.107441,VALID,19.5618,VALID,133,VALID,0.676953,
2012-05-22, 01:30:04,VALID,917.181,VALID,0,VALID,97.7932,VALID,0,VALID,19.5214,VALID,133,VALID,0.817578,
2012-05-22, 01:31:04,VALID,917.172,VALID,0,VALID,97.7703,VALID,0,VALID,19.5633,VALID,133,VALID,0.683203,
2012-05-22, 01:32:04,VALID,917.163,VALID,0,VALID,97.7856,VALID,0,VALID,19.5228,VALID,133,VALID,0.605859,
2012-05-22, 01:33:04,VALID,917.156,VALID,0,VALID,97.7932,VALID,0,VALID,19.5843,VALID,133,VALID,0.939062,
2012-05-22, 01:34:04,VALID,917.107,VALID,0,VALID,97.7856,VALID,0,VALID,19.5618,VALID,133,VALID,0.926953,
2012-05-22, 01:35:04,VALID,917.097,VALID,0,VALID,97.7779,VALID,0,VALID,19.6218,VALID,133,VALID,0.873828,
2012-05-22, 01:36:04,VALID,917.088,VALID,0,VALID,97.7703,VALID,0,VALID,19.6428,VALID,133,VALID,1.06172,
2012-05-22, 01:37:04,VALID,917.078,VALID,0,VALID,97.7779,VALID,0,VALID,19.6008,VALID,133,VALID,0.914453,
2012-05-22, 01:38:04,VALID,917.064,VALID,0,VALID,97.7703,VALID,0.107441,VALID,19.6623,VALID,133,VALID,0.959766,
2012-05-22, 01:39:04,VALID,917.02,VALID,0,VALID,97.7779,VALID,0,VALID,19.6833,VALID,133,VALID,0.790234,
2012-05-22, 01:40:04,VALID,917.045,VALID,0,VALID,97.7856,VALID,0.107441,VALID,19.6638,VALID,133,VALID,0.950781,
2012-05-22, 01:41:04,VALID,917.012,VALID,0,VALID,97.8008,VALID,0,VALID,19.6428,VALID,133,VALID,0.805859,
2012-05-22, 01:42:04,VALID,917.024,VALID,0,VALID,97.7932,VALID,0,VALID,19.6233,VALID,133,VALID,0.851172,
2012-05-22, 01:43:04,VALID,917.026,VALID,0,VALID,97.8237,VALID,0.107441,VALID,19.6038,VALID,133,VALID,0.636719,
2012-05-22, 01:44:04,VALID,917.036,VALID,0,VALID,97.8008,VALID,0,VALID,19.5243,VALID,133,VALID,0.468359,
2012-05-22, 01:45:04,VALID,917.025,VALID,0,VALID,97.816,VALID,0,VALID,19.5468,VALID,133,VALID,0.814844,
2012-05-22, 01:46:04,VALID,917.053,VALID,0,VALID,97.816,VALID,0,VALID,19.4868,VALID,133,VALID,0.648828,
2012-05-22, 01:47:04,VALID,917.04,VALID,0,VALID,97.8084,VALID,0,VALID,19.4478,VALID,133,VALID,0.531641,
2012-05-22, 01:48:04,VALID,917.031,VALID,0,VALID,97.8084,VALID,0,VALID,19.3864,VALID,133,VALID,0.533594,
2012-05-22, 01:49:04,VALID,917.054,VALID,0,VALID,97.816,VALID,0,VALID,19.3879,VALID,133,VALID,0.548828,
2012-05-22, 01:50:04,VALID,917.049,VALID,0,VALID,97.816,VALID,0,VALID,19.3698,VALID,133,VALID,0.601953,
2012-05-22, 01:51:04,VALID,917.035,VALID,0,VALID,97.816,VALID,0,VALID,19.3489,VALID,133,VALID,0.375781,
2012-05-22, 01:52:04,VALID,917.071,VALID,0,VALID,97.816,VALID,0,VALID,19.3294,VALID,133,VALID,0.476563,
2012-05-22, 01:53:04,VALID,917.073,VALID,0,VALID,97.8237,VALID,0,VALID,19.2904,VALID,133,VALID,0.492969,
2012-05-22, 01:54:04,VALID,917.086,VALID,0,VALID,97.8313,VALID,0,VALID,19.2543,VALID,133,VALID,0.544531,
2012-05-22, 01:55:04,VALID,917.105,VALID,0,VALID,97.8465,VALID,0,VALID,19.1525,VALID,133,VALID,0.714453,
2012-05-22, 01:56:04,VALID,917.079,VALID,0,VALID,97.8313,VALID,0,VALID,19.1749,VALID,133,VALID,0.657031,
2012-05-22, 01:57:04,VALID,917.08,VALID,0,VALID,97.8465,VALID,0,VALID,19.1359,VALID,133,VALID,0.666016,
2012-05-22, 01:58:04,VALID,917.046,VALID,0,VALID,97.8465,VALID,0,VALID,19.1344,VALID,133,VALID,0.750781,
2012-05-22, 01:59:04,VALID,917.038,VALID,0,VALID,97.8542,VALID,0,VALID,19.1359,VALID,133,VALID,0.513281,
2012-05-22, 02:00:04,VALID,917.016,VALID,0,VALID,97.8618,VALID,0,VALID,19.0969,VALID,133,VALID,0.363672,
2012-05-22, 02:01:04,VALID,916.979,VALID,0,VALID,97.877,VALID,0,VALID,19.1164,VALID,133,VALID,0,
2012-05-22, 02:02:04,VALID,916.963,VALID,0,VALID,97.8618,VALID,0,VALID,19.0774,VALID,133,VALID,0,
2012-05-22, 02:03:04,VALID,916.976,VALID,0,VALID,97.8618,VALID,0,VALID,19.0369,VALID,133,VALID,0,
2012-05-22, 02:04:04,VALID,916.972,VALID,0,VALID,97.8999,VALID,0,VALID,19.0788,VALID,133,VALID,0,
2012-05-22, 02:05:04,VALID,916.979,VALID,0,VALID,97.8847,VALID,0,VALID,19.0175,VALID,133,VALID,0,
2012-05-22, 02:06:04,VALID,916.959,VALID,0,VALID,97.8923,VALID,0,VALID,19.0384,VALID,133,VALID,0,
2012-05-22, 02:07:04,VALID,916.987,VALID,0,VALID,97.877,VALID,0,VALID,19.0384,VALID,133,VALID,0.543359,
2012-05-22, 02:08:04,VALID,917.018,VALID,0,VALID,97.877,VALID,0,VALID,19.0369,VALID,133,VALID,0.746484,
2012-05-22, 02:09:04,VALID,917.003,VALID,0,VALID,97.877,VALID,0,VALID,19.1359,VALID,133,VALID,0.726563,
2012-05-22, 02:10:04,VALID,916.998,VALID,0,VALID,97.877,VALID,0,VALID,19.1958,VALID,133,VALID,0.590625,
2012-05-22, 02:11:04,VALID,916.979,VALID,0,VALID,97.877,VALID,0,VALID,19.2139,VALID,133,VALID,0.612891,
2012-05-22, 02:12:04,VALID,916.978,VALID,0,VALID,97.8542,VALID,0.107441,VALID,19.2528,VALID,133,VALID,0.518359,
2012-05-22, 02:13:04,VALID,916.986,VALID,0,VALID,97.8694,VALID,0,VALID,19.2709,VALID,133,VALID,0,
2012-05-22, 02:14:04,VALID,916.925,VALID,0,VALID,97.8618,VALID,0,VALID,19.2918,VALID,133,VALID,0,
2012-05-22, 02:15:04,VALID,916.893,VALID,0,VALID,97.8847,VALID,0,VALID,19.1944,VALID,133,VALID,0.0917969,
2012-05-22, 02:16:04,VALID,916.852,VALID,0,VALID,97.8694,VALID,0,VALID,19.1525,VALID,133,VALID,0.0121094,
2012-05-22, 02:17:04,VALID,916.834,VALID,0,VALID,97.8847,VALID,0,VALID,19.1958,VALID,133,VALID,0,
2012-05-22, 02:18:04,VALID,916.818,VALID,0,VALID,97.8542,VALID,0,VALID,19.1734,VALID,133,VALID,0,
2012-05-22, 02:19:04,VALID,916.796,VALID,0,VALID,97.8847,VALID,0,VALID,19.1929,VALID,133,VALID,0,
2012-05-22, 02:20:04,VALID,916.778,VALID,0,VALID,97.8618,VALID,0,VALID,19.1315,VALID,133,VALID,0,
2012-05-22, 02:21:04,VALID,916.759,VALID,0,VALID,97.877,VALID,0,VALID,19.1539,VALID,133,VALID,0,
2012-05-22, 02:22:04,VALID,916.763,VALID,0,VALID,97.8999,VALID,0,VALID,19.1525,VALID,133,VALID,0.504687,
2012-05-22, 02:23:04,VALID,916.758,VALID,0,VALID,97.8542,VALID,0,VALID,19.172,VALID,133,VALID,0.421484,
2012-05-22, 02:24:04,VALID,916.752,VALID,0,VALID,97.8847,VALID,0,VALID,19.2334,VALID,133,VALID,0.466406,
2012-05-22, 02:25:04,VALID,916.716,VALID,0,VALID,97.8847,VALID,0,VALID,19.1958,VALID,133,VALID,0.345313,
2012-05-22, 02:26:04,VALID,916.74,VALID,0,VALID,97.8618,VALID,0,VALID,19.1178,VALID,133,VALID,0.028125,
2012-05-22, 02:27:04,VALID,916.71,VALID,0,VALID,97.8847,VALID,0,VALID,19.0189,VALID,133,VALID,0,
2012-05-22, 02:28:04,VALID,916.71,VALID,0,VALID,97.8847,VALID,0,VALID,18.9395,VALID,133,VALID,0,
2012-05-22, 02:29:04,VALID,916.654,VALID,0,VALID,97.8923,VALID,0,VALID,18.959,VALID,133,VALID,0,
2012-05-22, 02:30:04,VALID,916.67,VALID,0,VALID,97.8999,VALID,0,VALID,19.1193,VALID,133,VALID,0,
2012-05-22, 02:31:04,VALID,916.632,VALID,0,VALID,97.8999,VALID,0,VALID,19.1344,VALID,133,VALID,0,
2012-05-22, 02:32:04,VALID,916.643,VALID,0,VALID,97.877,VALID,0,VALID,19.1539,VALID,133,VALID,0,
2012-05-22, 02:33:04,VALID,916.652,VALID,0,VALID,97.8694,VALID,0,VALID,19.1164,VALID,133,VALID,0,
2012-05-22, 02:34:04,VALID,916.682,VALID,0,VALID,97.877,VALID,0,VALID,19.0175,VALID,133,VALID,0,
2012-05-22, 02:35:04,VALID,916.68,VALID,0,VALID,97.9075,VALID,0.107441,VALID,19.0189,VALID,133,VALID,0,
2012-05-22, 02:36:04,VALID,916.729,VALID,0,VALID,97.8847,VALID,0,VALID,18.9799,VALID,133,VALID,0,
2012-05-22, 02:37:04,VALID,916.709,VALID,0,VALID,97.8999,VALID,0,VALID,19.0398,VALID,133,VALID,0.312109,
2012-05-22, 02:38:04,VALID,916.679,VALID,0,VALID,97.8923,VALID,0,VALID,19.1359,VALID,133,VALID,0.176563,
2012-05-22, 02:39:04,VALID,916.68,VALID,0,VALID,97.8923,VALID,0,VALID,19.2543,VALID,133,VALID,0.150781,
2012-05-22, 02:40:04,VALID,916.666,VALID,0,VALID,97.8542,VALID,0,VALID,19.2723,VALID,133,VALID,0,
2012-05-22, 02:41:04,VALID,916.683,VALID,0,VALID,97.8923,VALID,0,VALID,19.2933,VALID,133,VALID,0,
2012-05-22, 02:42:04,VALID,916.691,VALID,0,VALID,97.8694,VALID,0,VALID,19.2124,VALID,133,VALID,0.532812,
2012-05-22, 02:43:04,VALID,916.67,VALID,0,VALID,97.877,VALID,0,VALID,19.1178,VALID,133,VALID,0.858984,
2012-05-22, 02:44:04,VALID,916.654,VALID,0,VALID,97.9152,VALID,0,VALID,19.0384,VALID,133,VALID,0.905469,
2012-05-22, 02:45:04,VALID,916.674,VALID,0,VALID,97.8923,VALID,0.107441,VALID,18.9785,VALID,133,VALID,0.604688,
2012-05-22, 02:46:04,VALID,916.688,VALID,0,VALID,97.8999,VALID,0,VALID,18.9409,VALID,140,VALID,0.63125,
2012-05-22, 02:47:04,VALID,916.644,VALID,0,VALID,97.9075,VALID,0,VALID,18.9814,VALID,140,VALID,0.819531,
2012-05-22, 02:48:04,VALID,916.651,VALID,0,VALID,97.9152,VALID,0,VALID,18.9799,VALID,140,VALID,0.689453,
2012-05-22, 02:49:04,VALID,916.642,VALID,0,VALID,97.9152,VALID,0,VALID,18.9799,VALID,140,VALID,0.803125,
2012-05-22, 02:50:04,VALID,916.603,VALID,0,VALID,97.8923,VALID,0,VALID,19.1164,VALID,140,VALID,0.925391,
2012-05-22, 02:51:04,VALID,916.609,VALID,0,VALID,97.8999,VALID,0,VALID,19.1164,VALID,140,VALID,0.824219,
2012-05-22, 02:52:04,VALID,916.586,VALID,0,VALID,97.8847,VALID,0,VALID,19.1359,VALID,140,VALID,0.719141,
2012-05-22, 02:53:04,VALID,916.589,VALID,0,VALID,97.8923,VALID,0,VALID,19.1749,VALID,140,VALID,0.784375,
2012-05-22, 02:54:04,VALID,916.597,VALID,0,VALID,97.9075,VALID,0,VALID,19.1554,VALID,140,VALID,0.834766,
2012-05-22, 02:55:04,VALID,916.564,VALID,0,VALID,97.9075,VALID,0,VALID,19.1554,VALID,140,VALID,0.887891,
2012-05-22, 02:56:04,VALID,916.595,VALID,0,VALID,97.9228,VALID,0,VALID,19.1164,VALID,140,VALID,1.00117,
2012-05-22, 02:57:04,VALID,916.576,VALID,0,VALID,97.9228,VALID,0,VALID,19.0774,VALID,140,VALID,1.07148,
2012-05-22, 02:58:04,VALID,916.552,VALID,0,VALID,97.9075,VALID,0,VALID,18.9994,VALID,133,VALID,0.999609,
2012-05-22, 02:59:04,VALID,916.526,VALID,0,VALID,97.9152,VALID,0,VALID,18.9799,VALID,118,VALID,1.11055,
2012-05-22, 03:00:04,VALID,916.49,VALID,0,VALID,97.9152,VALID,0,VALID,18.9994,VALID,118,VALID,1.16094,
2012-05-22, 03:01:04,VALID,916.441,VALID,0,VALID,97.9228,VALID,0,VALID,18.9994,VALID,118,VALID,1.10586,
2012-05-22, 03:02:04,VALID,916.434,VALID,0,VALID,97.9152,VALID,0,VALID,18.9409,VALID,118,VALID,0.716797,
2012-05-22, 03:03:04,VALID,916.382,VALID,0,VALID,97.9228,VALID,0,VALID,18.9229,VALID,118,VALID,0.877344,
2012-05-22, 03:04:04,VALID,916.379,VALID,0,VALID,97.9228,VALID,0,VALID,18.8629,VALID,118,VALID,0.887891,
2012-05-22, 03:05:04,VALID,916.358,VALID,0,VALID,97.938,VALID,0,VALID,18.8434,VALID,118,VALID,0.934766,
2012-05-22, 03:06:04,VALID,916.336,VALID,0,VALID,97.9456,VALID,0,VALID,18.8449,VALID,118,VALID,0.920703,
2012-05-22, 03:07:04,VALID,916.326,VALID,0,VALID,97.9609,VALID,0,VALID,18.824,VALID,118,VALID,0.9875,
2012-05-22, 03:08:04,VALID,916.329,VALID,0,VALID,97.9456,VALID,0,VALID,18.8045,VALID,118,VALID,1.13398,
2012-05-22, 03:09:04,VALID,916.329,VALID,0,VALID,97.9609,VALID,0,VALID,18.785,VALID,118,VALID,1.15195,
2012-05-22, 03:10:04,VALID,916.291,VALID,0,VALID,97.9456,VALID,0,VALID,18.7265,VALID,118,VALID,1.24336,
2012-05-22, 03:11:04,VALID,916.301,VALID,0,VALID,97.9914,VALID,0,VALID,18.707,VALID,119,VALID,1.10664,
2012-05-22, 03:12:04,VALID,916.235,VALID,0,VALID,97.9609,VALID,0,VALID,18.707,VALID,119,VALID,1.18555,
2012-05-22, 03:13:04,VALID,916.221,VALID,0,VALID,97.9685,VALID,0,VALID,18.707,VALID,119,VALID,1.03125,
2012-05-22, 03:14:04,VALID,916.19,VALID,0,VALID,97.9761,VALID,0,VALID,18.6875,VALID,122,VALID,1.10078,
2012-05-22, 03:15:04,VALID,916.171,VALID,0,VALID,97.9685,VALID,0,VALID,18.6875,VALID,135,VALID,1.00625,
2012-05-22, 03:16:04,VALID,916.176,VALID,0,VALID,97.9685,VALID,0,VALID,18.668,VALID,135,VALID,0.893359,
2012-05-22, 03:17:04,VALID,916.144,VALID,0,VALID,97.9761,VALID,0,VALID,18.668,VALID,135,VALID,0.717969,
2012-05-22, 03:18:04,VALID,916.188,VALID,0,VALID,97.9685,VALID,0,VALID,18.6694,VALID,135,VALID,0.810156,
2012-05-22, 03:19:04,VALID,916.148,VALID,0,VALID,97.9838,VALID,0,VALID,18.7279,VALID,135,VALID,0.74375,
2012-05-22, 03:20:04,VALID,916.165,VALID,0,VALID,97.9761,VALID,0,VALID,18.707,VALID,135,VALID,0.407813,
2012-05-22, 03:21:04,VALID,916.163,VALID,0,VALID,97.9838,VALID,0,VALID,18.707,VALID,135,VALID,0.826172,
2012-05-22, 03:22:04,VALID,916.173,VALID,0,VALID,97.9609,VALID,0,VALID,18.8045,VALID,135,VALID,0.711328,
2012-05-22, 03:23:04,VALID,916.128,VALID,0,VALID,97.9761,VALID,0,VALID,18.7265,VALID,135,VALID,0.727734,
2012-05-22, 03:24:04,VALID,916.141,VALID,0,VALID,97.9914,VALID,0,VALID,18.6485,VALID,135,VALID,0.810156,
2012-05-22, 03:25:04,VALID,916.149,VALID,0,VALID,97.9609,VALID,0,VALID,18.7265,VALID,135,VALID,0.789453,
2012-05-22, 03:26:04,VALID,916.137,VALID,0,VALID,97.9685,VALID,0,VALID,18.6109,VALID,135,VALID,0.719922,
2012-05-22, 03:27:04,VALID,916.16,VALID,0,VALID,97.9914,VALID,0,VALID,18.5316,VALID,135,VALID,0.629297,
2012-05-22, 03:28:04,VALID,916.156,VALID,0,VALID,97.9914,VALID,0,VALID,18.668,VALID,135,VALID,0.449219,
2012-05-22, 03:29:04,VALID,916.171,VALID,0,VALID,97.9838,VALID,0,VALID,18.707,VALID,135,VALID,0.435937,
2012-05-22, 03:30:04,VALID,916.179,VALID,0,VALID,97.9838,VALID,0,VALID,18.8434,VALID,135,VALID,0.534766,
2012-05-22, 03:31:04,VALID,916.195,VALID,0,VALID,97.9761,VALID,0,VALID,18.9409,VALID,135,VALID,0.686328,
2012-05-22, 03:32:04,VALID,916.231,VALID,0,VALID,97.9761,VALID,0,VALID,18.9799,VALID,135,VALID,0.78125,
2012-05-22, 03:33:04,VALID,916.228,VALID,0,VALID,97.9838,VALID,0,VALID,18.9799,VALID,135,VALID,0.917188,
2012-05-22, 03:34:04,VALID,916.245,VALID,0,VALID,97.9609,VALID,0,VALID,18.9799,VALID,135,VALID,0.627344,
2012-05-22, 03:35:04,VALID,916.284,VALID,0,VALID,97.9609,VALID,0,VALID,18.9994,VALID,135,VALID,0.472656,
2012-05-22, 03:36:04,VALID,916.248,VALID,0,VALID,97.9456,VALID,0,VALID,19.0189,VALID,135,VALID,0.446094,
2012-05-22, 03:37:04,VALID,916.277,VALID,0,VALID,97.9456,VALID,0,VALID,19.0774,VALID,135,VALID,0.574609,
2012-05-22, 03:38:04,VALID,916.309,VALID,0,VALID,97.9685,VALID,0,VALID,19.0969,VALID,135,VALID,0.00117188,
2012-05-22, 03:39:04,VALID,916.32,VALID,0,VALID,97.9456,VALID,0,VALID,19.1164,VALID,175,VALID,0.623047,
2012-05-22, 03:40:04,VALID,916.314,VALID,0,VALID,97.9456,VALID,0,VALID,19.2139,VALID,228,VALID,0.521875,
2012-05-22, 03:41:04,VALID,916.331,VALID,0,VALID,97.9609,VALID,0,VALID,19.1749,VALID,228,VALID,0.365625,
2012-05-22, 03:42:04,VALID,916.317,VALID,0,VALID,97.9228,VALID,0,VALID,19.1568,VALID,228,VALID,0.343359,
2012-05-22, 03:43:04,VALID,916.295,VALID,0,VALID,97.9609,VALID,0,VALID,19.0969,VALID,228,VALID,0.205859,
2012-05-22, 03:44:04,VALID,916.293,VALID,0,VALID,97.9533,VALID,0,VALID,19.0593,VALID,228,VALID,0.162891,